SCP
0 0 0 0 0 0 0 0 0 0 0 0 0 0 0 0 0 0 0 0 0 0 0 0 0 0 0 0 0 0 0 0
0 0 0 0 0 0 0 0 0 0 0 0 0 0 0 0 0 0 0 0 0 0 0 0 0 0 0 0 0 0 0 0
0 0 0 0 0 0 0 0 0 0 0 0 0 0 0 0 0 0 0 0 0 0 0 0 0 0 0 0 0 0 0 0
0 0 0 0 0 0 0 0 0 0 0 0 0 0 0 0 0 0 0 0 0 0 0 0 0 0 0 0 0 0 0 0
0 0 0 0 0 0 0 0 0 0 0 0 0 0 0 0 0 0 0 0 0 0 0 0 0 0 0 0 0 0 0 0
0 0 0 0 0 0 0 0 0 0 0 0 0 0 0 0 0 0 0 0 0 0 0 0 0 0 0 0 0 0 0 0
0 0 0 0 0 0 0 0 0 0 0 0 0 0 0 0 0 0 0 0 0 0 0 0 0 0 0 0 0 0 0 0
0 0 0 0 0 0 0 0 0 0 0 0 0 0 0 0 0 0 0 0 0 0 0 0 0 0 0 0 0 0 0 0
0 -0 0 0 0 0 0 0 0 0 0 0 0 0 0 0 0 0 0 0 0 0 0 0 0 0 -0 -0 0 0 0 0
-0 -0 -0 -0 0 0 0 0 0 0 0 0 0 0 0 0 0 0 0 0 0 0 0 0 0 -0 -0 -0 0 0 -0 0
-0 -0 -0 -0 -0 0 0 0 0 0 0 0 0 0 0 0 0 0 0 0 0 0 0 0 0 -0 -0 -0 -0 -0 -0 -0
0 -0 -0 -0 0 0 0 0 0 0 0 0 0 0 0 0 0 0 0 0 0 0 0 0 0 -0 -0 -0 -0 -0 -0 -0
-0 0 0 0 0 0 0 0 0 0 0 0 0 0 0 0 0 0 0 0 0 0 -0 -0 -0 -0 -0 -0 -0 -0 -0 0
-0 0 0 0 0 0 0 0 0 0 0 0 0 0 0 0 0 0 0 0 0 -0 -0 -0 -0 -0 -0 -0 -0 -0 -0 -0
-0 -0 0 0 0 0 0 0 0 0 0 0 0 0 0 0 0 0 0 0 0 -0 -0 -0 -0 -0 -0 -0 -0 -0 -0 0
-0 0 0 0 0 0 0 0 0 0 0 0 0 0 0 0 0 0 0 0 0 -0 -0 -0 -0 -0 -0 -0 -0 -0 -0 -0
-0 0 0 0 0 0 0 0 0 0 0 0 0 0 0 0 0 0 0 0 0 0 0 0 -0 -0 -0 -0 -0 -0 -0 -0
0 0 0 0 0 0 0 0 0 0 0 0 0 0 0 0 0 0 0 0 0 -0 0 0 0 0 0 -0 -0 -0 -0 -0
0 0 0 0 0 0 0 0 0 0 0 0 0 0 0 0 0 0 0 0 -0 -0 -0 -0 -0 0 0 0 0 -0 -0 -0
0 0 0 0 0 0 0 0 0 0 0 0 0 0 0 0 0 0 0 0 0 0 0 0 0 -0 -0 -0 0 0 0 0
Wind_Speed_500mb
69 66 64 60 57 52 48 43 39 35 31 23 21 16 6 1 10 20 27 30 32 35 36 38 41 42 43 43 43 44 45 44
63 60 57 54 51 49 45 41 35 33 27 21 16 11 5 5 9 19 29 34 37 38 37 37 36 38 40 38 35 44 50 47
56 54 51 49 48 44 40 36 32 28 21 15 13 11 13 16 21 26 30 31 33 33 31 30 30 36 31 49 53 49 44 44
53 49 48 45 42 39 37 31 29 25 20 13 17 19 20 22 24 24 24 23 22 24 24 29 33 30 43 46 44 43 39 39
48 45 42 38 35 36 32 30 26 22 14 12 15 19 20 22 22 20 19 20 21 21 25 39 30 26 33 32 35 36 38 39
45 42 40 36 33 33 32 28 22 18 16 16 16 16 17 18 18 19 19 19 20 22 25 33 28 28 33 34 37 37 38 37
43 39 37 34 33 33 28 23 22 20 20 21 23 23 19 18 18 20 21 21 21 22 21 24 26 27 33 34 36 38 40 42
42 37 35 36 34 28 25 25 22 23 24 24 22 21 19 19 20 22 23 22 21 20 19 20 25 25 27 31 35 42 48 49
42 39 36 32 28 24 25 23 23 20 20 19 17 17 18 17 17 18 21 23 25 22 19 18 16 19 22 26 33 40 50 53
39 36 34 30 26 24 24 21 21 16 14 14 17 18 17 18 21 23 25 28 30 24 20 15 15 20 22 25 35 41 43 41
33 32 29 27 27 25 23 22 18 18 15 16 19 21 20 23 25 28 29 31 31 30 30 29 26 30 28 26 37 48 43 39
31 28 27 26 24 25 25 21 18 16 14 18 21 23 24 27 27 34 30 34 34 33 33 35 36 40 41 40 41 46 40 52
28 26 25 24 23 25 23 21 19 17 16 17 19 21 24 27 29 34 32 35 36 34 36 39 42 42 42 36 42 40 47 57
29 26 24 21 20 21 22 23 23 21 18 18 18 21 24 22 27 28 29 27 30 27 30 33 33 34 32 28 30 31 40 54
28 25 22 20 19 21 22 22 23 22 19 19 17 20 22 21 24 26 25 23 24 21 24 26 27 28 28 26 24 23 40 51
27 24 23 21 18 20 23 23 22 20 20 21 21 22 22 22 24 26 29 28 27 25 24 22 23 23 24 25 21 40 46 52
27 26 26 25 23 22 23 20 20 20 17 18 25 26 24 24 23 23 28 30 32 35 35 32 29 32 28 32 40 48 48 50
27 29 27 26 26 23 21 18 18 17 22 25 25 20 19 22 22 25 28 30 35 38 42 41 39 47 47 44 47 51 55 49
32 30 29 28 25 21 20 20 19 17 18 21 29 22 22 22 22 24 24 25 25 32 31 39 37 40 44 53 52 50 54 56
31 32 32 26 22 22 23 25 22 20 20 21 21 21 22 25 25 23 23 26 28 29 29 34 43 35 36 40 45 50 51 54
Wind_Direction_500mb
108 109 111 115 114 113 111 108 109 114 118 117 115 111 111 172 296 297 304 289 291 292 292 292 291 291 291 291 290 290 289 289
109 110 112 112 110 106 104 102 102 105 108 108 102 91 55 5 309 280 281 288 291 296 300 303 302 301 301 301 293 293 294 294
109 109 108 106 102 101 101 101 103 101 94 86 63 16 356 323 308 303 302 304 304 306 308 309 311 309 305 285 296 298 298 296
109 106 104 101 101 99 95 91 88 77 58 29 358 345 336 328 326 324 320 314 310 318 320 322 316 311 285 297 302 304 302 299
109 105 99 95 96 97 94 86 77 69 49 23 2 356 346 337 335 332 325 324 326 327 329 326 327 322 308 312 309 308 306 302
106 103 98 92 92 89 84 78 71 53 36 18 359 347 341 342 344 339 336 336 330 324 326 331 330 329 319 318 317 318 309 306
105 103 100 95 88 83 79 73 61 50 39 27 24 26 21 16 4 353 349 340 334 326 324 328 323 328 328 335 335 336 336 335
103 98 93 89 83 81 75 67 61 53 44 38 38 31 21 16 8 2 1 354 338 329 329 332 324 341 343 345 341 342 340 339
106 103 92 81 78 75 72 65 58 55 47 42 33 29 29 14 19 15 19 14 10 11 358 343 342 348 1 350 347 347 344 347
104 99 89 79 71 67 65 65 60 59 55 46 35 31 35 24 25 20 11 11 7 17 22 17 9 19 8 4 9 1 354 0
97 93 86 77 71 67 59 58 61 66 52 41 38 31 30 26 23 20 16 18 24 31 30 33 34 27 18 14 12 13 3 8
100 95 86 78 67 62 57 55 62 63 53 53 38 34 37 37 29 21 23 21 26 28 29 28 25 24 17 11 17 11 11 23
99 94 87 80 67 59 52 46 51 58 57 56 41 40 34 35 25 24 26 14 18 21 19 19 17 18 18 12 9 5 23 30
94 87 84 81 71 61 50 44 45 54 53 54 49 45 49 35 33 23 18 17 16 16 10 18 17 12 11 7 7 9 34 35
91 90 87 82 70 57 45 42 42 44 49 52 53 44 44 36 38 35 33 23 25 18 12 12 11 14 18 21 11 19 38 38
92 85 77 71 64 51 42 38 46 44 36 46 53 53 52 41 42 41 39 40 44 45 34 24 18 23 26 30 23 43 35 38
87 78 69 62 56 42 40 43 48 49 54 43 43 49 49 52 40 47 47 50 53 57 58 54 44 43 37 34 33 39 31 30
83 70 65 62 54 45 44 50 56 51 36 60 63 49 43 46 51 45 45 43 43 43 38 38 39 42 39 35 35 34 33 31
78 72 66 61 54 52 53 53 58 58 55 44 58 52 52 51 47 41 37 33 33 32 26 27 39 33 32 39 38 34 29 28
79 72 66 65 65 57 66 62 60 59 60 58 56 56 54 54 52 48 39 32 30 29 27 19 32 35 29 28 30 35 33 28
Wind_Speed_850mb
69 66 64 60 57 52 48 43 39 35 31 23 21 16 6 1 10 20 27 30 32 35 36 38 41 42 43 43 43 44 45 44
63 60 57 54 51 49 45 41 35 33 27 21 16 11 5 5 9 19 29 34 37 38 37 37 36 38 40 38 35 44 50 47
56 54 51 49 48 44 40 36 32 28 21 15 13 11 13 16 21 26 30 31 33 33 31 30 30 36 31 49 53 49 44 44
53 49 48 45 42 39 37 31 29 25 20 13 17 19 20 22 24 24 24 23 22 24 24 29 33 30 43 46 44 43 39 39
48 45 42 38 35 36 32 30 26 22 14 12 15 19 20 22 22 20 19 20 21 21 25 39 30 26 33 32 35 36 38 39
45 42 40 36 33 33 32 28 22 18 16 16 16 16 17 18 18 19 19 19 20 22 25 33 28 28 33 34 37 37 38 37
43 39 37 34 33 33 28 23 22 20 20 21 23 23 19 18 18 20 21 21 21 22 21 24 26 27 33 34 36 38 40 42
42 37 35 36 34 28 25 25 22 23 24 24 22 21 19 19 20 22 23 22 21 20 19 20 25 25 27 31 35 42 48 49
42 39 36 32 28 24 25 23 23 20 20 19 17 17 18 17 17 18 21 23 25 22 19 18 16 19 22 26 33 40 50 53
39 36 34 30 26 24 24 21 21 16 14 14 17 18 17 18 21 23 25 28 30 24 20 15 15 20 22 25 35 41 43 41
33 32 29 27 27 25 23 22 18 18 15 16 19 21 20 23 25 28 29 31 31 30 30 29 26 30 28 26 37 48 43 39
31 28 27 26 24 25 25 21 18 16 14 18 21 23 24 27 27 34 30 34 34 33 33 35 36 40 41 40 41 46 40 52
28 26 25 24 23 25 23 21 19 17 16 17 19 21 24 27 29 34 32 35 36 34 36 39 42 42 42 36 42 40 47 57
29 26 24 21 20 21 22 23 23 21 18 18 18 21 24 22 27 28 29 27 30 27 30 33 33 34 32 28 30 31 40 54
28 25 22 20 19 21 22 22 23 22 19 19 17 20 22 21 24 26 25 23 24 21 24 26 27 28 28 26 24 23 40 51
27 24 23 21 18 20 23 23 22 20 20 21 21 22 22 22 24 26 29 28 27 25 24 22 23 23 24 25 21 40 46 52
27 26 26 25 23 22 23 20 20 20 17 18 25 26 24 24 23 23 28 30 32 35 35 32 29 32 28 32 40 48 48 50
27 29 27 26 26 23 21 18 18 17 22 25 25 20 19 22 22 25 28 30 35 38 42 41 39 47 47 44 47 51 55 49
32 30 29 28 25 21 20 20 19 17 18 21 29 22 22 22 22 24 24 25 25 32 31 39 37 40 44 53 52 50 54 56
31 32 32 26 22 22 23 25 22 20 20 21 21 21 22 25 25 23 23 26 28 29 29 34 43 35 36 40 45 50 51 54
Wind_Direction_850mb
108 109 111 115 114 113 111 108 109 114 118 117 115 111 111 172 296 297 304 289 291 292 292 292 291 291 291 291 290 290 289 289
109 110 112 112 110 106 104 102 102 105 108 108 102 91 55 5 309 280 281 288 291 296 300 303 302 301 301 301 293 293 294 294
109 109 108 106 102 101 101 101 103 101 94 86 63 16 356 323 308 303 302 304 304 306 308 309 311 309 305 285 296 298 298 296
109 106 104 101 101 99 95 91 88 77 58 29 358 345 336 328 326 324 320 314 310 318 320 322 316 311 285 297 302 304 302 299
109 105 99 95 96 97 94 86 77 69 49 23 2 356 346 337 335 332 325 324 326 327 329 326 327 322 308 312 309 308 306 302
106 103 98 92 92 89 84 78 71 53 36 18 359 347 341 342 344 339 336 336 330 324 326 331 330 329 319 318 317 318 309 306
105 103 100 95 88 83 79 73 61 50 39 27 24 26 21 16 4 353 349 340 334 326 324 328 323 328 328 335 335 336 336 335
103 98 93 89 83 81 75 67 61 53 44 38 38 31 21 16 8 2 1 354 338 329 329 332 324 341 343 345 341 342 340 339
106 103 92 81 78 75 72 65 58 55 47 42 33 29 29 14 19 15 19 14 10 11 358 343 342 348 1 350 347 347 344 347
104 99 89 79 71 67 65 65 60 59 55 46 35 31 35 24 25 20 11 11 7 17 22 17 9 19 8 4 9 1 354 0
97 93 86 77 71 67 59 58 61 66 52 41 38 31 30 26 23 20 16 18 24 31 30 33 34 27 18 14 12 13 3 8
100 95 86 78 67 62 57 55 62 63 53 53 38 34 37 37 29 21 23 21 26 28 29 28 25 24 17 11 17 11 11 23
99 94 87 80 67 59 52 46 51 58 57 56 41 40 34 35 25 24 26 14 18 21 19 19 17 18 18 12 9 5 23 30
94 87 84 81 71 61 50 44 45 54 53 54 49 45 49 35 33 23 18 17 16 16 10 18 17 12 11 7 7 9 34 35
91 90 87 82 70 57 45 42 42 44 49 52 53 44 44 36 38 35 33 23 25 18 12 12 11 14 18 21 11 19 38 38
92 85 77 71 64 51 42 38 46 44 36 46 53 53 52 41 42 41 39 40 44 45 34 24 18 23 26 30 23 43 35 38
87 78 69 62 56 42 40 43 48 49 54 43 43 49 49 52 40 47 47 50 53 57 58 54 44 43 37 34 33 39 31 30
83 70 65 62 54 45 44 50 56 51 36 60 63 49 43 46 51 45 45 43 43 43 38 38 39 42 39 35 35 34 33 31
78 72 66 61 54 52 53 53 58 58 55 44 58 52 52 51 47 41 37 33 33 32 26 27 39 33 32 39 38 34 29 28
79 72 66 65 65 57 66 62 60 59 60 58 56 56 54 54 52 48 39 32 30 29 27 19 32 35 29 28 30 35 33 28